This is the latest recevied weather packets stored in our database for station/object KE5KUL-13. If no packets are shown the sender has not sent any weather packets the latest 10 day(s).
| Time | Temp. | Humidity | Pressure | Rain* | Wind** | Luminosity | Snow |
|---|---|---|---|---|---|---|---|
| 1777701617 | 5° C | 83% | 1022.7 hPa | 0 mm | - | - | - |
| 1777701019 | 5° C | 83% | 1022.7 hPa | 0 mm | - | - | - |
| 1777700419 | 5° C | 83% | 1022.6 hPa | 0 mm | - | - | - |
| 1777699819 | 5° C | 82% | 1022.6 hPa | 0 mm | - | - | - |
| 1777699217 | 5° C | 82% | 1022.6 hPa | 0 mm | - | - | - |
| 1777698619 | 5° C | 82% | 1022.5 hPa | 0 mm | - | - | - |
| 1777698019 | 5° C | 82% | 1022.4 hPa | 0 mm | - | - | - |
| 1777697418 | 5° C | 81% | 1022 hPa | 0 mm | - | - | - |
| 1777696818 | 5.56° C | 80% | 1022.2 hPa | 0 mm | - | - | - |
| 1777696218 | 5.56° C | 78% | 1022.1 hPa | 0 mm | - | - | - |
| 1777695618 | 5.56° C | 78% | 1022 hPa | 0 mm | - | - | - |
| 1777695018 | 6.11° C | 78% | 1022.3 hPa | 0 mm | - | - | - |
| 1777694418 | 6.11° C | 77% | 1022.1 hPa | 0 mm | - | - | - |
| 1777693818 | 6.67° C | 78% | 1022.1 hPa | 0 mm | - | - | - |
| 1777693218 | 6.67° C | 75% | 1022.2 hPa | 0 mm | - | - | - |
| 1777692618 | 7.22° C | 75% | 1022.3 hPa | 0 mm | - | - | - |
| 1777692017 | 7.78° C | 73% | 1022.1 hPa | 0 mm | - | - | - |
| 1777691418 | 7.78° C | 73% | 1022.1 hPa | 0 mm | - | - | - |
| 1777690818 | 8.33° C | 72% | 1022.2 hPa | 0 mm | - | - | - |
| 1777690218 | 8.89° C | 72% | 1022.1 hPa | 0 mm | - | - | - |
| 1777689617 | 8.89° C | 71% | 1022 hPa | 0 mm | - | - | - |
| 1777689018 | 9.44° C | 70% | 1022 hPa | 0 mm | - | - | - |
| 1777688418 | 9.44° C | 69% | 1021.9 hPa | 0 mm | - | - | - |
| 1777687817 | 10° C | 69% | 1021.7 hPa | 0 mm | - | - | - |
| 1777687218 | 10° C | 68% | 1021.5 hPa | 0 mm | - | - | - |
* Rain latest hour (hover to see other rain measurements)
** Current wind speed in m/s (hover to see current wind gust speed)